Hourly Data Report for September 24, 2017

All times are specified in Local Standard Time (LST). Add 1 hour to adjust for Daylight Saving Time where and when it is observed.

PENTICTON A
BRITISH COLUMBIA

49°27'45.000" N
119°36'08.000" W
344.40 m
1126146
71889
YYF

Download Data

Hourly Data (September 2017)
Hourly Data Report for September 24, 2017
Temp Definition
°C
Dew Point Temp Definition
°C
Rel Hum Definition
%
Wind Dir Definition
10's deg

Wind Spd Definition
km/h
Visibility Definition
km
Stn Press Definition
kPa
Hmdx Definition


Wind Chill Definition


Weather Definition


TIME
00:00 Legend Double Dagger 6.4 2.9 78 1 8 24.1 97.92     LegendNANA
01:00 Legend Double Dagger 5.9 2.6 79 36 1 24.1 97.93     Mainly Clear
02:00 Legend Double Dagger 5.8 2.8 81 36 3 24.1 97.91     LegendNANA
03:00 Legend Double Dagger 5.0 2.5 84 2 7 24.1 97.95     LegendNANA
04:00 Legend Double Dagger 5.1 2.8 85 6 3 24.1 97.92     Mainly Clear
05:00 Legend Double Dagger 6.5 4.0 84 36 3 24.1 97.91     LegendNANA
06:00 Legend Double Dagger 7.3 4.7 83 34 7 24.1 97.93     LegendNANA
07:00 Legend Double Dagger 8.8 5.5 80 36 1 24.1 97.93     Mostly Cloudy
08:00 Legend Double Dagger 10.6 6.3 75 3 5 24.1 97.96     LegendNANA
09:00 Legend Double Dagger 12.4 6.4 67 35 5 24.1 97.98     Rain Showers
10:00 Legend Double Dagger 13.1 5.6 60 16 9 24.1 97.93     Cloudy
11:00 Legend Double Dagger 14.6 5.8 55 21 10 24.1 97.85     LegendNANA
12:00 Legend Double Dagger 15.5 5.1 50 19 6 24.1 97.81     LegendNANA
13:00 Legend Double Dagger 17.3 5.7 46 19 10 24.1 97.75     Mostly Cloudy
14:00 Legend Double Dagger 18.8 6.3 44 20 7 24.1 97.67     LegendNANA
15:00 Legend Double Dagger 18.5 7.1 47 35 14 24.1 97.61     LegendNANA
16:00 Legend Double Dagger 16.5 7.9 57 36 16 24.1 97.61     Mostly Cloudy
17:00 Legend Double Dagger 15.2 10.3 72 28 5 24.1 97.63     LegendNANA
18:00 Legend Double Dagger 15.6 9.8 68 29 13 24.1 97.66     LegendNANA
19:00 Legend Double Dagger 12.9 9.8 81 32 5 24.1 97.62     Mostly Cloudy
20:00 Legend Double Dagger 12.6 9.3 80 36 3 24.1 97.67     LegendNANA
21:00 Legend Double Dagger 8.9 7.8 93 35 3 24.1 97.67     LegendNANA
22:00 Legend Double Dagger 8.9 8.0 94 36 3 24.1 97.68     Mainly Clear
23:00 Legend Double Dagger 8.3 7.5 95 36 1 24.1 97.69     LegendNANA

Notes on Data Quality.

Legend

  • E = Estimated
  • M = Missing
  • NA = Not Available
  • ‡ = Partner data that is not subject to review by the National Climate Archives
Date modified: